Tracking 29892 objects as of 21-Nov-2024
HD Live streaming from Space Station
objects crossing your sky now

CZ-6A DEB

Track CZ-6A DEB now!
10-day predictions


NORAD ID: 54325
Int'l Code: 2022-151BU
Perigee: 832.7 km
Apogee: 881.0 km
Inclination: 98.8 °
Period: 101.9 minutes
Semi major axis: 7227 km
RCS: Unknown
Launch date: November 11, 2022
Source: People's Republic of China (PRC)
Launch site: Taiyaun Space Center, China (TSC)

Note: This is SATELLITE DEBRIS
Your satellite tracking list
Your tracking list is empty




NASA's NSSDC Master Catalog

Two Line Element Set (TLE):
1 54325U 22151BU  24325.94565683  .00000587  00000-0  33727-3 0  9997
2 54325  98.7932 326.4530 0033368 155.9555 204.3184 14.12824628103880
Source of the keplerian elements: AFSPC